Home   Weather   Birmingham   Past weeks
Flag for United Kingdom

Past Weather in Birmingham, England, United Kingdom — Yesterday and Last 2 Weeks

Now
48 °F

Fog.


Feels Like: 48 °F
Forecast: 55 / 44 °F
Wind: 2 mph from South

Location: Birmingham / Airport

Current Time: Oct 24, 2019 at 5:32:58 am

Latest Report: Oct 24, 2019 at 4:50 am


Visibility: 3 mi

Pressure: 29.62 "Hg

Humidity: 100%

Dew Point: 48 °F

Location of BirminghamLocation

Past Weather in Birmingham — Graph

°F

Birmingham Temperature Yesterday

Maximum temperature yesterday: 55 °F (at 2:50 pm)
Minimum temperature yesterday: 37 °F (at 3:20 am)
Average temperature yesterday: 46 °F

High & Low Weather Summary for the Past Weeks

 TemperatureHumidityPressure
High59 °F (Oct 10, 12:50 pm)100% (Oct 11, 1:50 pm)30.21 "Hg (Oct 11, 1:50 pm)
Low37 °F (Oct 23, 3:20 am)55% (Oct 16, 4:20 pm)29.39 "Hg (Oct 18, 7:20 pm)
Average51 °F89%29.73 "Hg
* Reported Oct 9 4:20 am — Oct 24 4:20 am, Birmingham. Weather by CustomWeather, © 2019

Note: Actual official high and low records may vary slightly from our data, if they occured in-between our weather recording intervals... More about our weather records

Advertising

Birmingham Weather History for the Previous 24 Hours

Scroll right to see more
 ConditionsComfort  
Time TempWeatherWind HumidityBarometerVisibility
4:20 am
Thu, Oct 24
48 °FFog.No wind100%29.65 "Hg2 mi
3:50 am48 °FClear.5 mph100%29.65 "Hg4 mi
3:20 am48 °FClear.3 mph100%29.68 "Hg4 mi
2:50 am50 °FFog.1 mph100%29.68 "Hg3 mi
2:20 am50 °FClear.3 mph100%29.68 "Hg4 mi
1:50 am50 °FFog.2 mph100%29.68 "Hg3 mi
1:20 am50 °FFog.2 mph100%29.68 "Hg3 mi
12:50 am50 °FFog.3 mph100%29.68 "Hg3 mi
12:20 am50 °FFog.3 mph100%29.68 "Hg2 mi
11:50 pm
Wed, Oct 23
50 °FLight rain. Fog.5 mph100%29.71 "Hg2 mi
11:20 pm50 °FLight rain. Passing clouds.2 mph100%29.71 "Hg4 mi
10:50 pm50 °FLight rain. Partly cloudy.6 mph100%29.74 "Hg4 mi
10:20 pm50 °FLight rain. Mostly cloudy.3 mph100%29.74 "Hg4 mi
9:50 pm52 °FLight rain. Partly cloudy.6 mph94%29.74 "Hg4 mi
9:20 pm52 °FLight rain. Passing clouds.5 mph94%29.74 "Hg2 mi
8:50 pm52 °FLight rain. Passing clouds.2 mph94%29.74 "Hg2 mi
8:20 pm52 °FLight rain. Passing clouds.3 mph94%29.74 "Hg2 mi
7:50 pm52 °FFog.5 mph94%29.77 "Hg2 mi
7:20 pm52 °FLight rain. Clear.3 mph94%29.77 "Hg2 mi
6:50 pm52 °FLight rain. Clear.2 mph94%29.80 "Hg4 mi
6:20 pm54 °FLight rain. Clear.3 mph88%29.80 "Hg4 mi
5:50 pm54 °FClear.6 mph88%29.80 "Hg6 mi
5:20 pm54 °FPassing clouds.5 mph88%29.80 "HgN/A
4:50 pm54 °FClear.7 mph88%29.83 "Hg4 mi
4:20 pm54 °FClear.6 mph82%29.83 "Hg6 mi
3:50 pm55 °FPassing clouds.6 mph77%29.83 "HgN/A
3:20 pm55 °FPassing clouds.10 mph77%29.86 "HgN/A
2:50 pm55 °FPassing clouds.7 mph82%29.86 "HgN/A
2:20 pm54 °FPassing clouds.8 mph94%29.89 "HgN/A
1:50 pm52 °FPassing clouds.6 mph94%29.89 "HgN/A
1:20 pm50 °FPartly sunny.6 mph100%29.92 "Hg4 mi
12:50 pm48 °FPartly sunny.7 mph100%29.92 "Hg3 mi
12:20 pm48 °FPartly sunny.8 mph100%29.95 "HgN/A
11:50 am46 °FFog.6 mph100%29.95 "Hg0 mi
11:20 am45 °FFog.6 mph100%29.95 "Hg0 mi
10:50 am45 °FFog.2 mph100%29.98 "Hg0 mi
10:20 am43 °FFog.3 mph100%29.98 "Hg0 mi
9:50 am43 °FFog.5 mph100%30.01 "Hg0 mi
9:20 am43 °FFog.6 mph100%30.01 "Hg0 mi
8:50 am41 °FFog.5 mph100%30.01 "Hg0 mi
8:20 am41 °FFog.5 mph100%30.01 "Hg0 mi
7:50 am41 °FFog.No wind100%30.01 "Hg0 mi
7:20 am39 °FFog.5 mph100%30.01 "Hg0 mi
6:50 am41 °FFog.5 mph100%30.01 "Hg0 mi
6:20 am39 °FFog.5 mph100%30.01 "Hg0 mi
5:50 am37 °FFog.3 mph100%30.04 "Hg0 mi
5:20 am39 °FFog.5 mph100%30.04 "Hg1 mi
Weather by CustomWeather, © 2019

See weather overview